Location: S�tio Afonso Gruber
(26.1760°S, 49.5250°W)
Time: 00:22:11
(UTC+00:00)

Intelsat 5-3 Rocket - Pass Details

Date: 10 October 2020
Orbit: 281 x 6111 km, 23.6° (Epoch: 22 October)

Event Time Altitude Azimuth Distance (km) Brightness Sun altitude
Exits shadow 05:52:43 53° 304° (NW) 4,999 6.5 -37.6°
Maximum altitude 05:59:23 60° 340° (NNW) 5,406 6.8 -36.4°
Drops below altitude 10° 06:39:57 10° 51° (NE) 9,437 8.8 -28.3°
Sets 06:47:42 0° 54° (NE) 10,080 9.1 -26.7°
